CSZ9410 ZUUU-ZGSZ

Flight info

Callsign CSZ9410
Flight time 1h 59m
Altitude 33100
Route IDBOR B330 AVPAM A599 POU W7 SAREX
Aircraft A321/M-SDE1FGHILORVWXY/HB1

Departure

Time 2026-04-22 12:53
Airport Chengdu Shuangliu International Airport (ZUUU)

Arrival

Time 2026-04-22 14:52
Airport Shenzhen Bao'an International Airport (ZGSZ)
Time Latitude Longitude Altitude Speed Heading
2026-04-22 12:26 30.56945 103.94943 1690 ft 0 kts 22°
2026-04-22 12:45 30.56944 103.94943 1690 ft 1 kts 22°
2026-04-22 12:45 30.56931 103.94937 1690 ft 2 kts 22°
2026-04-22 12:45 30.56921 103.94932 1690 ft 2 kts 22°
2026-04-22 12:46 30.56911 103.94927 1690 ft 1 kts 22°
2026-04-22 12:46 30.56905 103.94924 1690 ft 2 kts 17°
2026-04-22 12:46 30.56891 103.94924 1690 ft 2 kts 345°
2026-04-22 12:46 30.56877 103.94932 1690 ft 2 kts 317°
2026-04-22 12:47 30.56870 103.94943 1690 ft 0 kts 295°
2026-04-22 12:47 30.56867 103.94950 1690 ft 1 kts 291°
2026-04-22 12:47 30.56867 103.94951 1690 ft 0 kts 292°
2026-04-22 12:49 30.56876 103.94923 1690 ft 13 kts 288°
2026-04-22 12:49 30.56906 103.94809 1690 ft 15 kts 290°
2026-04-22 12:49 30.56923 103.94701 1690 ft 10 kts 235°
2026-04-22 12:50 30.56900 103.94623 1690 ft 13 kts 256°
2026-04-22 12:50 30.56838 103.94556 1690 ft 16 kts 208°
2026-04-22 12:50 30.56724 103.94497 1690 ft 18 kts 203°
2026-04-22 12:50 30.56608 103.94439 1690 ft 18 kts 203°
2026-04-22 12:51 30.56489 103.94383 1690 ft 18 kts 202°
2026-04-22 12:51 30.56371 103.94327 1690 ft 18 kts 200°
2026-04-22 12:51 30.56280 103.94244 1690 ft 13 kts 269°
2026-04-22 12:51 30.56304 103.94141 1690 ft 14 kts 289°
2026-04-22 12:52 30.56350 103.94046 1690 ft 14 kts 324°
2026-04-22 12:52 30.56447 103.94047 1690 ft 20 kts 21°
2026-04-22 12:52 30.56770 103.94199 1690 ft 87 kts 21°
2026-04-22 12:52 30.57548 103.94566 1691 ft 151 kts 21°
2026-04-22 12:53 30.58678 103.95105 1811 ft 192 kts 22°
2026-04-22 12:53 30.59821 103.95720 2674 ft 183 kts 25°
2026-04-22 12:53 30.60949 103.96333 3174 ft 182 kts 20°
2026-04-22 12:53 30.62166 103.96857 3510 ft 194 kts 19°
2026-04-22 12:54 30.63465 103.97424 3807 ft 209 kts 20°
2026-04-22 12:54 30.64873 103.98060 4105 ft 227 kts 20°
2026-04-22 12:54 30.66404 103.98767 4462 ft 246 kts 21°
2026-04-22 12:54 30.67964 103.99707 4818 ft 265 kts 39°
2026-04-22 12:55 30.68765 104.00744 5018 ft 272 kts 58°
2026-04-22 12:55 30.69383 104.03611 6056 ft 276 kts 86°
2026-04-22 12:55 30.69418 104.05804 6828 ft 278 kts 88°
2026-04-22 12:55 30.69204 104.08059 7551 ft 283 kts 108°
2026-04-22 12:56 30.68354 104.10125 8272 ft 287 kts 117°
2026-04-22 12:56 30.67345 104.12197 8740 ft 291 kts 118°
2026-04-22 12:56 30.66382 104.14134 8971 ft 291 kts 120°
2026-04-22 12:56 30.65080 104.15881 9303 ft 301 kts 142°
2026-04-22 12:57 30.63492 104.17063 10017 ft 301 kts 150°
2026-04-22 12:57 30.61554 104.17796 10696 ft 304 kts 173°
2026-04-22 12:57 30.59444 104.17661 11315 ft 308 kts 195°
2026-04-22 12:57 30.57432 104.16852 11944 ft 311 kts 200°
2026-04-22 12:58 30.55379 104.15949 12511 ft 315 kts 200°
2026-04-22 12:58 30.53341 104.15078 12804 ft 318 kts 199°
2026-04-22 12:58 30.51243 104.14211 13136 ft 322 kts 199°
2026-04-22 12:58 30.49235 104.13395 13720 ft 323 kts 199°
2026-04-22 12:59 30.47330 104.12625 14262 ft 325 kts 199°
2026-04-22 12:59 30.45498 104.11833 14639 ft 331 kts 201°
2026-04-22 12:59 30.43708 104.10991 14833 ft 343 kts 202°
2026-04-22 12:59 30.42098 104.10223 15011 ft 352 kts 202°
2026-04-22 13:00 30.40490 104.09459 15183 ft 361 kts 202°
2026-04-22 13:00 30.38301 104.08428 15405 ft 374 kts 202°
2026-04-22 13:00 30.34016 104.06425 15812 ft 396 kts 202°
2026-04-22 13:00 30.31417 104.05212 16043 ft 409 kts 202°
2026-04-22 13:01 30.29594 104.04509 16172 ft 418 kts 192°
2026-04-22 13:01 30.25721 104.04567 16522 ft 430 kts 164°
2026-04-22 13:01 30.23000 104.06005 16975 ft 431 kts 144°
2026-04-22 13:01 30.20607 104.08118 17498 ft 434 kts 140°
2026-04-22 13:02 30.18236 104.10301 17914 ft 440 kts 140°
2026-04-22 13:02 30.16084 104.12279 18330 ft 443 kts 140°
2026-04-22 13:02 30.13929 104.14246 18651 ft 446 kts 140°
2026-04-22 13:02 30.11801 104.16174 18747 ft 446 kts 140°
2026-04-22 13:03 30.08732 104.18939 19075 ft 452 kts 141°
2026-04-22 13:03 30.06215 104.21197 19651 ft 453 kts 141°
2026-04-22 13:03 30.03711 104.23439 20147 ft 455 kts 141°
2026-04-22 13:03 30.01190 104.25694 20594 ft 458 kts 141°
2026-04-22 13:04 29.98647 104.27966 21041 ft 461 kts 141°
2026-04-22 13:04 29.96094 104.30244 21477 ft 464 kts 141°
2026-04-22 13:04 29.93526 104.32533 21897 ft 467 kts 141°
2026-04-22 13:04 29.90940 104.34837 22308 ft 470 kts 142°
2026-04-22 13:05 29.88319 104.37167 22725 ft 473 kts 142°
2026-04-22 13:05 29.85692 104.39490 23114 ft 475 kts 142°
2026-04-22 13:05 29.83059 104.41819 23492 ft 478 kts 142°
2026-04-22 13:05 29.80418 104.44157 23882 ft 480 kts 142°
2026-04-22 13:06 29.77767 104.46506 24256 ft 482 kts 142°
2026-04-22 13:06 29.75105 104.48866 24604 ft 485 kts 142°
2026-04-22 13:06 29.72422 104.51245 24945 ft 487 kts 143°
2026-04-22 13:06 29.69714 104.53645 25283 ft 490 kts 143°
2026-04-22 13:07 29.67011 104.56039 25622 ft 492 kts 143°
2026-04-22 13:07 29.64304 104.58436 25960 ft 494 kts 143°
2026-04-22 13:07 29.61578 104.60847 26283 ft 496 kts 143°
2026-04-22 13:07 29.58844 104.63266 26643 ft 497 kts 143°
2026-04-22 13:08 29.56111 104.65683 27089 ft 495 kts 144°
2026-04-22 13:08 29.53388 104.68104 27519 ft 494 kts 144°
2026-04-22 13:08 29.50655 104.70534 27911 ft 493 kts 144°
2026-04-22 13:08 29.48245 104.72669 28250 ft 492 kts 144°
2026-04-22 13:09 29.46412 104.74290 28515 ft 491 kts 145°
2026-04-22 13:09 29.44743 104.75763 28756 ft 490 kts 145°
2026-04-22 13:09 29.43194 104.77129 28977 ft 490 kts 145°
2026-04-22 13:09 29.41880 104.78286 29162 ft 489 kts 145°
2026-04-22 13:10 29.35722 104.83529 29972 ft 485 kts 149°
2026-04-22 13:10 29.32869 104.85582 30329 ft 481 kts 153°
2026-04-22 13:10 29.29959 104.87404 30676 ft 478 kts 157°
2026-04-22 13:10 29.26980 104.89015 31003 ft 475 kts 160°
2026-04-22 13:11 29.23981 104.90522 31311 ft 474 kts 160°
2026-04-22 13:11 29.20981 104.92022 31605 ft 473 kts 160°
2026-04-22 13:11 29.17990 104.93523 31960 ft 470 kts 161°
2026-04-22 13:11 29.15052 104.95006 32541 ft 458 kts 161°
2026-04-22 13:12 29.12153 104.96469 32858 ft 454 kts 161°
2026-04-22 13:12 29.06378 104.99374 32897 ft 458 kts 161°
2026-04-22 13:13 29.00561 105.02310 32900 ft 461 kts 160°
2026-04-22 13:13 28.94689 105.05272 32901 ft 465 kts 160°
2026-04-22 13:14 28.88762 105.08240 32902 ft 466 kts 160°
2026-04-22 13:14 28.82849 105.11186 32902 ft 466 kts 160°
2026-04-22 13:15 28.76967 105.14213 32903 ft 468 kts 157°
2026-04-22 13:15 28.71208 105.17656 32902 ft 468 kts 156°
2026-04-22 13:16 28.65476 105.21129 32902 ft 469 kts 156°
2026-04-22 13:16 28.59743 105.24600 32902 ft 468 kts 156°
2026-04-22 13:17 28.54021 105.28058 32902 ft 468 kts 155°
2026-04-22 13:17 28.48272 105.31530 32902 ft 469 kts 156°
2026-04-22 13:18 28.42542 105.34983 32902 ft 469 kts 156°
2026-04-22 13:18 28.36817 105.38431 32902 ft 469 kts 155°
2026-04-22 13:19 28.31058 105.41897 32902 ft 469 kts 155°
2026-04-22 13:19 28.25331 105.45341 32903 ft 469 kts 156°
2026-04-22 13:20 28.19609 105.48782 32902 ft 468 kts 155°
2026-04-22 13:20 28.13879 105.52217 32902 ft 469 kts 156°
2026-04-22 13:21 28.07982 105.55251 32902 ft 465 kts 163°
2026-04-22 13:21 28.01914 105.57631 32897 ft 461 kts 169°
2026-04-22 13:22 27.95655 105.58876 32902 ft 458 kts 175°
2026-04-22 13:22 27.89363 105.59902 32902 ft 458 kts 175°
2026-04-22 13:23 27.83065 105.61315 32904 ft 462 kts 169°
2026-04-22 13:23 27.76967 105.63549 32904 ft 466 kts 162°
2026-04-22 13:24 27.71094 105.66625 32901 ft 469 kts 155°
2026-04-22 13:24 27.65335 105.70022 32903 ft 467 kts 158°
2026-04-22 13:25 27.59503 105.73201 32903 ft 468 kts 158°
2026-04-22 13:25 27.53674 105.76354 32920 ft 468 kts 158°
2026-04-22 13:26 27.47813 105.79518 33057 ft 468 kts 158°
2026-04-22 13:26 27.41990 105.82660 33131 ft 467 kts 158°
2026-04-22 13:27 27.36167 105.85797 33160 ft 466 kts 158°
2026-04-22 13:27 27.30333 105.88938 33170 ft 466 kts 158°
2026-04-22 13:28 27.24458 105.92099 33174 ft 467 kts 158°
2026-04-22 13:28 27.18745 105.95172 33174 ft 466 kts 158°
2026-04-22 13:29 27.12907 105.98305 33174 ft 467 kts 158°
2026-04-22 13:29 27.07280 106.01969 33173 ft 471 kts 149°
2026-04-22 13:30 27.02215 106.06619 33174 ft 476 kts 139°
2026-04-22 13:30 26.97854 106.12168 33174 ft 478 kts 130°
2026-04-22 13:31 26.93887 106.18096 33175 ft 477 kts 129°
2026-04-22 13:31 26.89916 106.24044 33175 ft 476 kts 129°
2026-04-22 13:32 26.85931 106.29928 33175 ft 476 kts 129°
2026-04-22 13:32 26.81948 106.35799 33175 ft 476 kts 129°
2026-04-22 13:33 26.77954 106.41693 33175 ft 476 kts 129°
2026-04-22 13:33 26.73979 106.47561 33175 ft 476 kts 129°
2026-04-22 13:34 26.70002 106.53426 33175 ft 476 kts 129°
2026-04-22 13:34 26.66022 106.59291 33175 ft 476 kts 129°
2026-04-22 13:35 26.62029 106.65175 33174 ft 476 kts 129°
2026-04-22 13:35 26.58048 106.71051 33174 ft 476 kts 129°
2026-04-22 13:36 26.54387 106.77173 33174 ft 477 kts 122°
2026-04-22 13:36 26.51390 106.83784 33174 ft 479 kts 114°
2026-04-22 13:37 26.49135 106.90748 33173 ft 480 kts 107°
2026-04-22 13:37 26.47259 106.97867 33175 ft 480 kts 106°
2026-04-22 13:38 26.45361 107.04978 33175 ft 480 kts 106°
2026-04-22 13:38 26.42541 107.15669 33175 ft 479 kts 105°
2026-04-22 13:39 26.40675 107.22771 33175 ft 479 kts 105°
2026-04-22 13:39 26.38806 107.29871 33175 ft 479 kts 105°
2026-04-22 13:40 26.36924 107.37000 33175 ft 479 kts 105°
2026-04-22 13:40 26.35046 107.44097 33175 ft 479 kts 105°
2026-04-22 13:41 26.33167 107.51187 33175 ft 479 kts 105°
2026-04-22 13:41 26.31275 107.58307 33175 ft 479 kts 105°
2026-04-22 13:42 26.29387 107.65402 33174 ft 479 kts 106°
2026-04-22 13:42 26.27502 107.72502 33174 ft 479 kts 106°
2026-04-22 13:43 26.25613 107.79590 33175 ft 479 kts 106°
2026-04-22 13:43 26.23707 107.86707 33175 ft 479 kts 106°
2026-04-22 13:44 26.21820 107.93789 33175 ft 479 kts 105°
2026-04-22 13:44 26.19944 108.00884 33175 ft 479 kts 105°
2026-04-22 13:45 26.18061 108.07997 33175 ft 479 kts 105°
2026-04-22 13:45 26.16182 108.15082 33175 ft 479 kts 105°
2026-04-22 13:46 26.14300 108.22164 33175 ft 479 kts 105°
2026-04-22 13:46 26.12416 108.29243 33175 ft 479 kts 105°
2026-04-22 13:47 26.10521 108.36345 33175 ft 479 kts 105°
2026-04-22 13:47 26.08632 108.43424 33175 ft 479 kts 105°
2026-04-22 13:48 26.06759 108.50501 33174 ft 479 kts 105°
2026-04-22 13:48 26.04881 108.57601 33163 ft 479 kts 105°
2026-04-22 13:49 26.03001 108.64700 33143 ft 479 kts 105°
2026-04-22 13:49 26.01117 108.71804 33122 ft 479 kts 106°
2026-04-22 13:50 25.99253 108.78904 33107 ft 479 kts 105°
2026-04-22 13:50 25.97398 108.86028 33099 ft 479 kts 105°
2026-04-22 13:51 25.95546 108.93129 33096 ft 479 kts 105°
2026-04-22 13:51 25.93691 109.00218 33096 ft 479 kts 105°
2026-04-22 13:52 25.91823 109.07341 33096 ft 477 kts 105°
2026-04-22 13:52 25.89963 109.14419 33096 ft 476 kts 105°
2026-04-22 13:53 25.88074 109.21496 33095 ft 475 kts 105°
2026-04-22 13:53 25.86203 109.28525 33095 ft 475 kts 105°
2026-04-22 13:54 25.84335 109.35588 33095 ft 475 kts 105°
2026-04-22 13:54 25.82482 109.42612 33095 ft 475 kts 105°
2026-04-22 13:55 25.80617 109.49645 33095 ft 475 kts 105°
2026-04-22 13:55 25.78308 109.56524 33094 ft 476 kts 115°
2026-04-22 13:56 25.74955 109.62828 33093 ft 476 kts 126°
2026-04-22 13:56 25.70638 109.68393 33095 ft 475 kts 136°
2026-04-22 13:57 25.65876 109.73447 33095 ft 475 kts 137°
2026-04-22 13:57 25.61065 109.78492 33095 ft 475 kts 137°
2026-04-22 13:58 25.56284 109.83525 33095 ft 475 kts 137°
2026-04-22 13:58 25.51503 109.88564 33095 ft 475 kts 137°
2026-04-22 13:59 25.46697 109.93627 33095 ft 475 kts 137°
2026-04-22 13:59 25.42040 109.98530 33095 ft 475 kts 137°
2026-04-22 14:00 25.37213 110.03606 33095 ft 475 kts 137°
2026-04-22 14:00 25.32386 110.08677 33095 ft 475 kts 137°
2026-04-22 14:01 25.27531 110.13775 33095 ft 475 kts 137°
2026-04-22 14:01 25.22694 110.18849 33095 ft 475 kts 137°
2026-04-22 14:02 25.17843 110.23940 33095 ft 475 kts 137°
2026-04-22 14:02 25.13008 110.29060 33095 ft 475 kts 136°
2026-04-22 14:03 25.08197 110.34152 33096 ft 475 kts 136°
2026-04-22 14:03 25.03407 110.39216 33096 ft 473 kts 136°
2026-04-22 14:04 24.98641 110.44245 33096 ft 471 kts 135°
2026-04-22 14:04 24.93891 110.49259 33095 ft 469 kts 135°
2026-04-22 14:05 24.89182 110.54235 33094 ft 469 kts 135°
2026-04-22 14:06 24.82129 110.61640 33095 ft 469 kts 135°
2026-04-22 14:06 24.77420 110.66606 33095 ft 469 kts 135°
2026-04-22 14:07 24.72748 110.71562 33095 ft 469 kts 135°
2026-04-22 14:07 24.68059 110.76506 33095 ft 469 kts 135°
2026-04-22 14:08 24.63374 110.81487 33095 ft 469 kts 135°
2026-04-22 14:08 24.58738 110.86484 33095 ft 469 kts 135°
2026-04-22 14:09 24.54104 110.91477 33095 ft 469 kts 135°
2026-04-22 14:09 24.49476 110.96454 33096 ft 468 kts 134°
2026-04-22 14:10 24.44834 111.01442 33096 ft 467 kts 134°
2026-04-22 14:10 24.40226 111.06389 33096 ft 466 kts 134°
2026-04-22 14:11 24.35624 111.11327 33096 ft 464 kts 134°
2026-04-22 14:11 24.31022 111.16263 33095 ft 464 kts 134°
2026-04-22 14:12 24.26406 111.21190 33095 ft 464 kts 135°
2026-04-22 14:12 24.21611 111.25638 33095 ft 465 kts 142°
2026-04-22 14:13 24.16370 111.29488 32915 ft 466 kts 148°
2026-04-22 14:13 24.13513 111.31209 32764 ft 467 kts 152°
2026-04-22 14:13 24.10630 111.32820 32615 ft 467 kts 152°
2026-04-22 14:13 24.07722 111.34432 32464 ft 468 kts 152°
2026-04-22 14:14 24.04850 111.36026 32317 ft 468 kts 152°
2026-04-22 14:14 24.01967 111.37629 32167 ft 468 kts 152°
2026-04-22 14:14 23.99078 111.39237 32017 ft 469 kts 152°
2026-04-22 14:14 23.96189 111.40847 31867 ft 469 kts 152°
2026-04-22 14:15 23.93276 111.42471 31716 ft 469 kts 152°
2026-04-22 14:15 23.90382 111.44083 31567 ft 470 kts 152°
2026-04-22 14:15 23.87471 111.45701 31415 ft 470 kts 152°
2026-04-22 14:15 23.84569 111.47307 31265 ft 471 kts 152°
2026-04-22 14:16 23.81660 111.48920 31116 ft 471 kts 152°
2026-04-22 14:16 23.78752 111.50533 30966 ft 472 kts 152°
2026-04-22 14:16 23.75839 111.52151 30816 ft 473 kts 152°
2026-04-22 14:16 23.72901 111.53783 30665 ft 473 kts 152°
2026-04-22 14:17 23.69979 111.55407 30516 ft 474 kts 152°
2026-04-22 14:17 23.67056 111.57031 30366 ft 474 kts 152°
2026-04-22 14:17 23.64130 111.58657 30216 ft 475 kts 152°
2026-04-22 14:17 23.61201 111.60284 30067 ft 475 kts 152°
2026-04-22 14:18 23.58269 111.61912 29917 ft 475 kts 152°
2026-04-22 14:18 23.55323 111.63549 29768 ft 476 kts 152°
2026-04-22 14:18 23.52401 111.65173 29619 ft 476 kts 152°
2026-04-22 14:18 23.49448 111.66825 29470 ft 477 kts 152°
2026-04-22 14:19 23.46479 111.68485 29320 ft 477 kts 152°
2026-04-22 14:19 23.43529 111.70124 29170 ft 477 kts 152°
2026-04-22 14:19 23.40575 111.71757 29020 ft 478 kts 152°
2026-04-22 14:20 23.31843 111.76579 28954 ft 478 kts 152°
2026-04-22 14:20 23.25925 111.79848 28955 ft 478 kts 152°
2026-04-22 14:21 23.20834 111.84220 28944 ft 473 kts 121°
2026-04-22 14:21 23.19533 111.87480 28959 ft 469 kts 103°
2026-04-22 14:22 23.17528 111.97780 28956 ft 469 kts 100°
2026-04-22 14:22 23.16148 112.04760 28721 ft 479 kts 101°
2026-04-22 14:23 23.15427 112.08277 28521 ft 478 kts 101°
2026-04-22 14:23 23.14698 112.11789 28319 ft 477 kts 101°
2026-04-22 14:23 23.13963 112.15312 28118 ft 476 kts 101°
2026-04-22 14:23 23.13228 112.18825 27914 ft 474 kts 101°
2026-04-22 14:24 23.12510 112.22250 27717 ft 473 kts 101°
2026-04-22 14:24 23.11765 112.25806 27521 ft 483 kts 101°
2026-04-22 14:24 23.11013 112.29389 27320 ft 484 kts 101°
2026-04-22 14:24 23.10264 112.32951 27120 ft 483 kts 101°
2026-04-22 14:25 23.09515 112.36512 26920 ft 482 kts 101°
2026-04-22 14:25 23.08769 112.40050 26720 ft 480 kts 101°
2026-04-22 14:25 23.08021 112.43590 26520 ft 479 kts 101°
2026-04-22 14:25 23.07345 112.47102 26445 ft 478 kts 98°
2026-04-22 14:26 23.06853 112.50569 26251 ft 476 kts 95°
2026-04-22 14:26 23.06533 112.54175 26050 ft 474 kts 93°
2026-04-22 14:26 23.06288 112.57762 25848 ft 473 kts 92°
2026-04-22 14:26 23.06057 112.61338 25649 ft 472 kts 92°
2026-04-22 14:27 23.05828 112.64882 25449 ft 470 kts 92°
2026-04-22 14:27 23.05602 112.68334 25253 ft 469 kts 92°
2026-04-22 14:27 23.05366 112.71885 25051 ft 468 kts 93°
2026-04-22 14:27 23.05132 112.75366 24854 ft 467 kts 93°
2026-04-22 14:28 23.04894 112.78867 24653 ft 465 kts 93°
2026-04-22 14:28 23.04660 112.82286 24465 ft 464 kts 93°
2026-04-22 14:28 23.04424 112.85743 24088 ft 462 kts 93°
2026-04-22 14:28 23.04187 112.89181 23643 ft 457 kts 93°
2026-04-22 14:29 23.03947 112.92666 23184 ft 454 kts 93°
2026-04-22 14:29 23.03712 112.96085 22733 ft 451 kts 93°
2026-04-22 14:29 23.03481 112.99427 22291 ft 447 kts 93°
2026-04-22 14:29 23.03247 113.02815 21837 ft 444 kts 93°
2026-04-22 14:30 23.03018 113.06107 21389 ft 441 kts 93°
2026-04-22 14:30 23.02798 113.09255 20957 ft 434 kts 93°
2026-04-22 14:30 23.02563 113.12585 20508 ft 426 kts 93°
2026-04-22 14:30 23.02311 113.15823 20006 ft 421 kts 96°
2026-04-22 14:31 23.01753 113.18876 19511 ft 417 kts 104°
2026-04-22 14:31 23.00853 113.21658 19041 ft 413 kts 112°
2026-04-22 14:31 22.99629 113.24396 18552 ft 409 kts 116°
2026-04-22 14:31 22.98298 113.27150 18047 ft 405 kts 116°
2026-04-22 14:32 22.96981 113.29851 17541 ft 401 kts 116°
2026-04-22 14:32 22.95688 113.32523 17041 ft 397 kts 116°
2026-04-22 14:32 22.94432 113.35137 16602 ft 391 kts 116°
2026-04-22 14:32 22.93176 113.37763 16074 ft 389 kts 116°
2026-04-22 14:33 22.91943 113.40345 15668 ft 383 kts 116°
2026-04-22 14:33 22.90713 113.42918 15270 ft 377 kts 116°
2026-04-22 14:33 22.89340 113.45337 14852 ft 373 kts 130°
2026-04-22 14:33 22.87445 113.47101 14504 ft 366 kts 149°
2026-04-22 14:34 22.85098 113.48112 14215 ft 356 kts 169°
2026-04-22 14:34 22.82660 113.48305 13943 ft 347 kts 182°
2026-04-22 14:34 22.80252 113.48203 13519 ft 344 kts 183°
2026-04-22 14:34 22.77875 113.48073 13093 ft 341 kts 186°
2026-04-22 14:35 22.75605 113.47472 12685 ft 335 kts 205°
2026-04-22 14:35 22.73653 113.46147 12272 ft 329 kts 223°
2026-04-22 14:35 22.72211 113.44254 11823 ft 325 kts 241°
2026-04-22 14:35 22.71258 113.42062 11380 ft 322 kts 248°
2026-04-22 14:36 22.70406 113.39830 10930 ft 320 kts 249°
2026-04-22 14:36 22.69557 113.37608 10663 ft 312 kts 248°
2026-04-22 14:36 22.68748 113.35523 10628 ft 298 kts 248°
2026-04-22 14:36 22.67951 113.33486 10385 ft 291 kts 248°
2026-04-22 14:37 22.67003 113.31618 10126 ft 286 kts 230°
2026-04-22 14:37 22.65446 113.30325 9802 ft 286 kts 204°
2026-04-22 14:37 22.63516 113.29893 9487 ft 285 kts 181°
2026-04-22 14:37 22.61548 113.29974 9168 ft 283 kts 178°
2026-04-22 14:38 22.59641 113.30113 8858 ft 280 kts 177°
2026-04-22 14:38 22.57757 113.30589 8463 ft 282 kts 154°
2026-04-22 14:38 22.56248 113.31890 8099 ft 282 kts 128°
2026-04-22 14:38 22.55258 113.33668 7746 ft 282 kts 118°
2026-04-22 14:39 22.54433 113.35578 7362 ft 282 kts 106°
2026-04-22 14:39 22.54232 113.37629 7006 ft 280 kts 89°
2026-04-22 14:39 22.54295 113.39684 6901 ft 270 kts 87°
2026-04-22 14:40 22.54434 113.42990 6641 ft 269 kts 87°
2026-04-22 14:40 22.54667 113.45655 6307 ft 263 kts 71°
2026-04-22 14:40 22.55471 113.47404 6068 ft 257 kts 58°
2026-04-22 14:40 22.56386 113.49014 5819 ft 254 kts 57°
2026-04-22 14:41 22.57320 113.50624 5572 ft 254 kts 57°
2026-04-22 14:41 22.58487 113.52107 5292 ft 252 kts 33°
2026-04-22 14:41 22.59987 113.53078 5063 ft 252 kts 27°
2026-04-22 14:41 22.61567 113.53833 4900 ft 247 kts 13°
2026-04-22 14:42 22.63253 113.54269 4902 ft 250 kts 11°
2026-04-22 14:42 22.64943 113.54699 4781 ft 249 kts 12°
2026-04-22 14:42 22.66626 113.55158 4659 ft 249 kts 13°
2026-04-22 14:42 22.68314 113.55636 4536 ft 249 kts 13°
2026-04-22 14:43 22.70008 113.56123 4412 ft 249 kts 13°
2026-04-22 14:43 22.71675 113.56606 4288 ft 249 kts 13°
2026-04-22 14:43 22.73367 113.56975 4162 ft 247 kts
2026-04-22 14:43 22.75047 113.57142 4038 ft 246 kts
2026-04-22 14:44 22.76750 113.57195 3907 ft 238 kts 359°
2026-04-22 14:44 22.77833 113.57222 3901 ft 230 kts 359°
2026-04-22 14:44 22.79974 113.57279 3896 ft 232 kts 359°
2026-04-22 14:44 22.81602 113.57353 3893 ft 232 kts
2026-04-22 14:45 22.83102 113.57948 3904 ft 234 kts 34°
2026-04-22 14:45 22.84227 113.59214 3765 ft 234 kts 60°
2026-04-22 14:45 22.84954 113.60790 3605 ft 233 kts 66°
2026-04-22 14:45 22.85637 113.62386 3432 ft 232 kts 65°
2026-04-22 14:46 22.86336 113.63965 3260 ft 231 kts 65°
2026-04-22 14:46 22.86919 113.65564 3072 ft 229 kts 83°
2026-04-22 14:46 22.86829 113.67273 3010 ft 223 kts 111°
2026-04-22 14:46 22.86077 113.68714 2997 ft 219 kts 137°
2026-04-22 14:47 22.84856 113.69663 3006 ft 216 kts 156°
2026-04-22 14:47 22.83506 113.70379 2997 ft 216 kts 156°
2026-04-22 14:47 22.82154 113.71092 2995 ft 216 kts 156°
2026-04-22 14:47 22.80804 113.71815 2994 ft 216 kts 156°
2026-04-22 14:48 22.79473 113.72538 3006 ft 210 kts 156°
2026-04-22 14:48 22.78198 113.73235 2824 ft 199 kts 156°
2026-04-22 14:48 22.77003 113.73890 2585 ft 191 kts 156°
2026-04-22 14:48 22.75838 113.74529 2330 ft 184 kts 156°
2026-04-22 14:49 22.74736 113.75134 2088 ft 170 kts 156°
2026-04-22 14:49 22.73723 113.75691 1876 ft 160 kts 156°
2026-04-22 14:49 22.72732 113.76234 1671 ft 159 kts 156°
2026-04-22 14:49 22.71768 113.76764 1450 ft 150 kts 156°
2026-04-22 14:50 22.70824 113.77281 1260 ft 151 kts 156°
2026-04-22 14:50 22.69918 113.77778 1068 ft 150 kts 156°
2026-04-22 14:50 22.69013 113.78276 860 ft 141 kts 156°
2026-04-22 14:50 22.68136 113.78756 683 ft 142 kts 156°
2026-04-22 14:51 22.67274 113.79228 501 ft 141 kts 155°
2026-04-22 14:51 22.66394 113.79713 306 ft 141 kts 155°
2026-04-22 14:51 22.65547 113.80182 117 ft 140 kts 155°
2026-04-22 14:51 22.64704 113.80646 23 ft 123 kts 156°
2026-04-22 14:52 22.64084 113.80968 22 ft 73 kts 150°
2026-04-22 14:52 22.63771 113.81143 22 ft 38 kts 156°
2026-04-22 14:52 22.63538 113.81242 22 ft 36 kts 168°
2026-04-22 14:52 22.63427 113.81254 22 ft 10 kts 184°
2026-04-22 14:53 22.63396 113.81251 22 ft 16 kts 184°
2026-04-22 14:53 22.63300 113.81169 22 ft 19 kts 248°
2026-04-22 14:53 22.63267 113.81030 22 ft 19 kts 245°
2026-04-22 14:53 22.63205 113.80901 22 ft 19 kts 243°
2026-04-22 14:54 22.63209 113.80798 22 ft 15 kts 320°
2026-04-22 14:54 22.63253 113.80804 22 ft 10 kts 38°
2026-04-22 14:54 22.63310 113.80838 22 ft 6 kts 326°
2026-04-22 14:54 22.63316 113.80834 22 ft 0 kts 327°
2026-04-22 14:55 22.63321 113.80832 22 ft 2 kts 342°
2026-04-22 14:55 22.63334 113.80826 22 ft 0 kts 335°